CZ-4C DEB, 42672

Orbit data source: Space-Track

CZ-4C DEB, 42672 is space debris in SSO originally from a launch on Thu, 26 Nov 2015 UTC launched from the Taiyaun Space Center, China (TSC). Debris objects in space refer to the collection of defunct objects orbiting the Earth. Examples of debris include non-operational satellites, rocket bodies, and fragments generated from explosions, collisions, or faulty payload assembly.

Loading next visibility...
Identifier
42672, 2015-069E
Orbit
SSO
Country
Flag of CNCN / PRC
Related business
Manufacturer
Unknown
Mission
Spacecraft
Bus & Motor
Unknown
Mass
Unknown
Launch date (UTC)
2015-11-26 (10 years ago)
Launch vehicle
Unknown
Launch site
Taiyaun Space Center, China (TSC)
Object type
Payload
Rocket body
Debris
Shape & HBR
Unknown shape, 0.1 m
Radar Cross Section
Small (<0.1 m²)

Expand to show TLE details & history
Last TLE update: 7 hours ago

TLE from 7 hours ago
0 CZ-4C DEB
1 42672U 15069E   26124.41089360  .00015718  00000-0  10917-2 0  9990
2 42672  98.2770 112.0930 0079526  93.1733 267.8593 15.03060232552539
Epoch: 2026-05-04T09:51Z
TLE epoch observation values (Epoch: 2026-05-04T09:51:41.207Z)
Latitude
-0°
Longitude
101.87082°
Altitude
563.007 km
Speed
7.578 km/s
True Right ascension
07h 28m 22s
True Declination
0° 00' 00"
Sunlit
Object was in daylight at epoch
Visualization orbit readout
Latitude
Unknown
Longitude
Unknown
Altitude
Unknown
Speed
Unknown
Apparent Right ascension
Unknown
Apparent Declination
Unknown
Sunlit
N/A
Visualization observer readout
Local Sidereal Time
00:40:57
Azimuth
Unknown
Elevation
Unknown
Doppler factor
Unknown
Orbital elements
Apogee altitude
609.626 km
Perigee altitude
499.361 km
Semi-major axis
6,932.631 km
Eccentricity
0.00795
Inclination
98.277°
RAAN
112.093°
Arg. of periapsis
93.1733°
True anomaly
266.94901°
Mean anomaly
267.8593°
Eccentric anomaly
267.40412°
Mean motion
3.76007 °/min
Orbital period
95.74 mins
BSTAR
0.0010917
Loading maneuver chart data...
Computing Atmospheric mass density...
Loading historical data...
Loading historical data...
Loading historical data...
Loading historical data...
Loading historical data...
Loading historical data...
Loading historical data...
Other satellites on launch #69 in the year 2015 (2015-11-26 UTC)

Documentation

Showing up to 5 results
|